Regional Weather Roundup
Issued by NWS

Home | Current Version | Previous Version | Text Only | Print | Product List | Glossary Off
Versions: 1 2 3 4 5 6 7 8 9 10 11 12 13 14 15 16 17 18 19 20 21 22 23 24 25 26 27 28 29 30 31 32 33 34 35 36 37 38 39 40 41 42 43 44 45 46 47 48 49 50

647
ASUS43 KMPX 232101
RWRMN
WEATHER ROUNDUP FOR MINNESOTA
NATIONAL WEATHER SERVICE TWIN CITIES/CHANHASSEN MN
300 PM CST THU FEB 23 2017


NOTE: "FAIR" INDICATES FEW OR NO CLOUDS BELOW 12,000 FEET WITH NO
SIGNIFICANT WEATHER AND/OR OBSTRUCTIONS TO VISIBILITY. N/A MEANS
CURRENT SKY AND/OR WEATHER CONDITIONS ARE NOT AVAILABLE.

MNZ060>063-068>070-232200-
   Twin Cities Metro

CITY           SKY/WX    TMP DP  RH WIND       PRES   REMARKS
TWIN CITIES    CLOUDY    34  23  64 N14       29.90S WCI  25
ST PAUL        PTSUNNY   34  25  69 N10       29.91S WCI  26
CRYSTAL        CLOUDY    32  20  61 N12       29.91S WCI  23
BLAINE         CLOUDY    34  25  69 N13       29.92S WCI  25
LAKEVILLE      CLOUDY    34  27  75 N12G17    29.87F WCI  25
EDEN PRAIRIE   CLOUDY    34  24  67 N12       29.88S WCI  25
SOUTH ST PAUL  CLOUDY    35  25  65 N14G20    29.89F WCI  26
LAKE ELMO      FAIR      34  28  80 N13       29.91R WCI  25
$$
MNZ001>005-007-008-013>017-022>024-027-028-232200-
   Northwest Minnesota

CITY           SKY/WX    TMP DP  RH WIND       PRES   REMARKS
BEMIDJI        CLOUDY    26  17  66 N12       29.99R WCI  16
HALLOCK        CLOUDY    25  16  68 N12       30.09R WCI  14
ROSEAU         CLOUDY    23  14  68 N12       30.06R WCI  12
WARROAD        MOSUNNY   23  12  63 NW15G22   30.05R WCI  10
THIEF RVR FALL   N/A     26  16  65 N13       30.05  WCI  15
CROOKSTON      CLOUDY    27  18  69 N18       30.07S WCI  13
FOSSTON        CLOUDY    25  18  74 N12       30.03S WCI  14
DETROIT LAKES  CLOUDY    28  23  80 N10       30.00S WCI  19
MOORHEAD       CLOUDY    28  21  74 N18G24    30.03F WCI  16
PARK RAPIDS    CLOUDY    29  18  63 N8        29.96S WCI  21
MAHNOMEN       CLOUDY    26  20  77 N12       30.01S WCI  16
$$
MNZ006-009>011-018-025>026-232200-
   North Central Minnesota

CITY           SKY/WX    TMP DP  RH WIND       PRES   REMARKS
BAUDETTE       MOSUNNY   23  10  57 NW17G24   30.01R WCI   9
FLAG ISLAND    SUNNY     21   9  58 NW20      30.02R WCI   6
INTL FALLS     SUNNY     27  11  51 NW8G18    29.97R WCI  19
WASKISH        PTSUNNY   27  16  63 NW7       30.01R WCI  19
BIG FORK       SUNNY     28  12  50 NW7       29.97R WCI  21
LONGVILLE      CLOUDY    27  19  74 NW5       29.98R WCI  21
GRAND RAPIDS   PTSUNNY   27  20  75 NW9       29.98R WCI  18
CRANE LAKE     SUNNY     25  10  54 N8G16     29.97R WCI  16
ORR            SUNNY     27  10  50 CALM      29.93R
COOK           MOSUNNY   27  14  59 W9        29.95R WCI  17
WALKER         FAIR      27  17  66 N7        29.98S WCI  19
$$
MNZ012-019>021-037-232200-
   Northeast Minnesota

CITY           SKY/WX    TMP DP  RH WIND       PRES   REMARKS
DULUTH         PTSUNNY   29  22  75 NW9       29.92R WCI  20
ELY            SUNNY     28  12  50 NW8       29.91R WCI  20
HIBBING        PTSUNNY   25  18  74 NW13      29.94R WCI  14
EVELETH        CLOUDY    28  18  66 NW9       29.93S WCI  19
DULUTH HARBOR  PTSUNNY   30  25  80 CALM      29.97S
TWO HARBORS    PTSUNNY   34  25  69 W5        29.91R WCI  30
SILVER BAY     SUNNY     34  25  69 NW3       29.89S
GRAND MARAIS     N/A     38  16  40 MISG      29.89R
G MARAIS ARPRT SUNNY     30  10  43 NW7       29.86R WCI  23
$$
MNZ029>031-032-039>041-046>048-054>057-064-232200-
   West Central Minnesota

CITY           SKY/WX    TMP DP  RH WIND       PRES   REMARKS
FERGUS FALLS   CLOUDY    28  21  74 N10G20    30.03R WCI  19
WHEATON        CLOUDY    28  21  74 N16       30.01S WCI  17
MORRIS         CLOUDY    30  25  80 NE15      29.95S WCI  19
ALEXANDRIA     CLOUDY    29  22  75 N12       29.95S WCI  19
ELBOW LAKE     PTSUNNY   28  22  77 NE10      29.98S WCI  19
WADENA         CLOUDY    27  21  80 N12       29.96S WCI  16
GLENWOOD       CLOUDY    28  25  86 N13       29.94S WCI  18
APPLETON       CLOUDY    32  25  74 NE14      29.94F WCI  22
BENSON         CLOUDY    34  21  60 NE14      29.95F WCI  24
ORTONVILLE     CLOUDY    30  21  69 N14       29.95F WCI  20
MADISON        CLOUDY    34  28  80 N16       29.93S WCI  23
WILLMAR        FAIR      30  27  86 N15       29.93F WCI  19
$$
MNZ033>034-036-042>043-049>051-058-059-232200-
   Central Minnesota

CITY           SKY/WX    TMP DP  RH WIND       PRES   REMARKS
ST CLOUD       CLOUDY    30  23  75 N8        29.94F WCI  22
SAUK CENTRE    FAIR      30  22  74 N8        29.94F WCI  22
PAYNESVILLE    CLOUDY    30  24  78 N14       29.93F WCI  19
AITKIN         CLOUDY    30  21  69 N9        29.95S WCI  22
PINE RIVER     CLOUDY    27  19  74 N8        30.01R WCI  18
BRAINERD       PTSUNNY   29  21  72 N9        29.97R WCI  20
STAPLES        MOSUNNY   27  21  80 N9        29.97R WCI  17
LONG PRAIRIE   FAIR      30  23  74 N10       29.95S WCI  21
LITTLE FALLS   CLOUDY    30  21  69 N6        29.96F WCI  24
LITCHFIELD     PTSUNNY   30  25  80 N14       29.92F WCI  20
BUFFALO        CLOUDY    30  23  75 N12       29.93F WCI  20
MAPLE LAKE     CLOUDY    30  25  81 N10       29.93F WCI  21
HUTCHINSON     CLOUDY    31  25  78 N14G20    29.92R WCI  21
$$
MNZ037-044-045-052-053-232200-
   East Central Minnesota

CITY           SKY/WX    TMP DP  RH WIND       PRES   REMARKS
PRINCETON      CLOUDY    30  25  80 N9        29.95S WCI  22
MORA           PTSUNNY   30  23  74 N5        29.97S WCI  25
CAMBRIDGE      CLOUDY    30  21  69 N7        29.93S WCI  23
RUSH CITY      CLOUDY    30  23  74 N12       29.95S WCI  21
MOOSE LAKE     CLOUDY    30  23  74 N6        29.94S WCI  24
HINCKLEY       CLOUDY    30  27  86 N7        29.95F WCI  23
CLOQUET        CLOUDY    28  21  74 NW8       29.94S WCI  20
MCGREGOR       CLOUDY    28  23  80 N8        29.96S WCI  20
$$
MNZ071>073-080-081-089-090-097-098-232200-
   Southwest Minnesota

CITY           SKY/WX    TMP DP  RH WIND       PRES   REMARKS
MONTEVIDEO     PTSUNNY   30  27  86 NE14      29.94S WCI  20
GRANITE FALLS  CLOUDY    33  28  81 N13       29.92S WCI  23
CANBY          CLOUDY    32  27  83 N14G20    29.92F WCI  22
MARSHALL       CLOUDY    31  25  78 N13       29.91R WCI  21
REDWOOD FALLS  CLOUDY    32  23  69 N10       29.90S WCI  24
OLIVIA         CLOUDY    32  27  80 N14       29.90S WCI  22
PIPESTONE      PTSUNNY   30  23  74 NE16      29.84S WCI  19
WINDOM         FLURRIES  30  27  86 N17       29.85S WCI  18
WORTHINGTON    FLURRIES  30  26  85 N24G31    29.81F WCI  16
JACKSON          N/A     32  28  86 NE22      29.84R WCI  19
TRACY          CLOUDY    31  28  85 NE13      29.89S WCI  22
SLAYTON        FLURRIES  29  26  89 N14G22    29.85S WCI  18
$$
MNZ065>067-074>077-082>085-091>093-232200-
   South Central Minnesota

CITY           SKY/WX    TMP DP  RH WIND       PRES   REMARKS
MANKATO          N/A     35  25  66 NE21      29.85F WCI  24
NEW ULM        CLOUDY    32  25  74 N12G18    29.87F WCI  23
ST JAMES       PTSUNNY   34  28  80 N16       29.86F WCI  23
FAIRMONT       CLOUDY    34  29  82 N14       29.84S WCI  25
GLENCOE        CLOUDY    32  28  83 N8G20     29.89F WCI  25
FARIBAULT      CLOUDY    36  28  75 N16G22    29.85F
OWATONNA       CLOUDY    36  27  69 N14G21    29.84F
WASECA         CLOUDY    34  28  80 N17G24    29.85F WCI  23
ALBERT LEA     CLOUDY    37  32  81 NE18      29.79F
$$
MNZ078>079-086>088-094>096-232200-
   Southeast Minnesota

CITY           SKY/WX    TMP DP  RH WIND       PRES   REMARKS
ROCHESTER      CLOUDY    39  31  72 NE20      29.81F
RED WING       CLOUDY    39  25  56 NE6       29.86F
STANTON        CLOUDY    37  29  71 N15       29.85F
DODGE CENTER   CLOUDY    37  30  75 NE13G20   29.81F
WINONA           N/A     41  30  65 N6        29.85S
AUSTIN         CLOUDY    37  30  75 NE14      29.79F
PRESTON        CLOUDY    39  31  72 N17       29.77F
$$
ABBREVIATIONS USED IN REMARKS
   TC - TEMPERATURES IN CELSIUS
  WCI - WIND CHILL INDEX
   HX - HEAT INDEX
  VSB - VISIBILITY
$$




USA.gov is the U.S. government's official web portal to all federal, state and local government web resources and services.